Temp
45 46 47 48 49 48 49 48 48 49 50 50 50 50 50 50 51 50 47 52 45 37 43 46 47 44 46 45 38 44 39 37 34 32 34 37 37 41 40 45 41 38 34 34 36 31 29 51 47 41 48 48 50 49
43 47 46 48 48 48 48 48 49 50 50 50 50 50 50 50 50 51 43 51 50 39 39 50 50 54 52 52 45 41 39 38 37 35 38 43 38 43 42 35 51 38 45 41 43 43 47 51 48 50 52 51 48 49
45 47 46 48 48 47 48 49 49 49 49 49 49 49 50 50 50 49 44 45 43 36 38 41 43 53 55 54 55 38 38 42 40 46 42 43 39 48 39 42 45 48 52 43 42 48 48 49 49 51 51 51 50 50
47 47 47 47 47 48 48 48 48 48 48 49 49 49 49 49 50 49 43 45 45 39 33 41 55 50 56 56 54 50 48 47 45 43 41 44 41 49 45 46 45 49 48 45 44 49 46 48 50 51 48 49 48 49
47 47 47 47 48 48 48 48 48 48 48 49 49 49 48 48 48 47 46 47 49 42 34 37 48 54 56 54 51 51 45 41 40 39 37 37 48 45 47 45 43 50 48 42 41 48 49 47 50 50 47 47 48 46
46 47 47 47 47 47 47 47 47 48 48 49 49 48 48 48 48 44 36 44 49 45 36 34 49 46 51 51 48 46 44 42 41 37 37 40 46 43 38 40 51 53 52 51 48 48 46 46 48 49 48 47 47 47
46 46 47 46 46 47 47 46 47 47 48 48 48 48 48 47 45 39 39 46 49 46 36 34 40 45 47 48 43 42 43 40 39 37 37 38 41 42 38 39 47 49 50 47 48 46 42 46 45 47 48 48 45 47
46 46 46 46 46 46 46 46 46 47 48 48 48 48 48 48 46 42 48 47 47 41 38 33 37 39 42 35 35 40 36 37 36 36 39 37 41 38 36 47 47 47 46 45 46 48 49 50 48 47 47 46 43 43
45 45 46 46 46 46 46 46 46 47 47 47 46 46 44 41 38 41 49 48 47 42 34 34 36 34 39 37 39 38 39 36 41 37 38 38 36 35 44 48 46 46 46 46 45 46 47 46 45 45 45 44 44 42
45 45 45 45 45 45 45 46 46 46 46 46 46 39 32 38 46 47 42 38 37 38 37 35 46 35 40 37 39 40 43 39 36 41 42 36 39 47 48 50 52 49 49 47 43 41 43 43 43 43 44 45 44 43
45 45 45 45 45 45 45 46 46 46 46 42 36 35 43 46 40 36 32 32 35 32 36 43 43 37 42 35 38 44 40 40 34 38 37 37 37 44 47 49 50 49 48 49 49 49 48 47 44 43 42 42 42 42
45 45 45 45 45 44 45 46 45 44 42 41 40 41 39 36 35 32 32 35 34 37 40 38 40 40 37 42 43 41 37 37 32 39 34 33 39 43 46 46 47 48 48 47 48 46 46 46 46 45 43 42 42 41
45 45 45 45 44 45 46 45 46 45 43 39 36 34 33 33 27 28 27 33 34 37 37 38 34 37 39 42 38 38 31 32 39 32 33 38 40 43 46 46 46 48 47 47 46 46 46 45 45 44 42 42 38 35
45 45 44 44 45 46 45 45 45 43 39 35 32 27 29 28 32 35 36 36 35 37 38 41 37 37 40 36 34 31 33 35 29 28 32 38 37 39 44 46 46 44 43 44 44 43 40 38 35 34 33 33 32 31
44 44 45 45 45 46 45 45 44 43 37 33 33 26 29 33 34 34 35 36 36 40 41 40 40 42 35 32 34 32 28 28 32 33 36 33 34 39 41 40 41 37 34 35 36 34 33 32 32 31 32 32 32 30
44 46 45 45 46 46 45 45 44 41 36 35 33 30 33 32 32 33 34 34 38 41 42 44 37 34 32 34 30 30 30 30 32 32 32 35 34 35 36 36 35 35 36 35 34 34 32 32 32 31 30 31 30 30
45 40 45 45 45 45 45 44 43 36 34 32 31 33 32 33 32 33 34 36 40 40 36 40 32 31 35 32 30 35 31 31 32 32 33 34 32 32 32 32 32 32 33 33 32 32 31 30 30 31 30 28 30 29
43 45 45 46 46 45 44 43 39 37 30 34 31 31 34 33 33 33 35 37 40 41 41 36 39 33 30 28 31 31 32 32 32 32 32 33 33 32 32 31 31 32 31 30 30 30 30 31 33 34 30 29 29 29
46 47 45 46 47 45 41 39 42 31 32 33 33 35 34 32 34 35 37 39 41 44 41 39 33 32 31 33 33 32 33 33 32 32 32 32 32 31 30 30 31 31 31 32 34 36 35 33 36 36 34 34 34 33
45 44 43 45 46 44 37 37 43 36 32 32 35 35 33 33 34 34 36 38 39 39 34 33 32 32 33 34 35 35 34 34 35 31 31 32 33 33 33 35 35 34 34 34 34 33 34 34 34 34 34 34 32 30
46 46 44 47 43 41 37 36 36 36 36 34 35 35 34 36 34 33 34 38 35 33 32 33 32 33 34 34 37 38 36 37 36 36 33 30 32 34 33 33 34 34 33 32 32 31 33 32 32 32 30 30 30 29
43 43 44 43 39 39 36 37 36 37 36 35 35 36 33 31 30 32 35 33 32 31 33 35 34 35 34 32 33 34 33 34 35 34 33 33 32 32 32 33 34 33 34 34 36 33 34 34 32 31 29 27 28 27
43 43 39 38 33 33 30 38 33 35 30 31 34 31 31 32 33 37 30 32 31 33 34 35 34 34 32 34 36 36 36 36 34 34 34 34 34 33 33 33 35 33 33 34 36 35 33 31 30 29 28 28 27 25
40 32 29 29 31 27 30 29 34 32 32 31 30 26 28 31 35 31 27 30 32 34 34 33 35 33 34 34 32 33 34 38 36 34 35 35 33 32 33 32 32 31 31 33 33 32 31 30 28 28 27 27 26 26
31 25 28 25 29 27 25 25 25 28 25 26 25 26 28 32 28 27 27 28 31 31 32 33 34 35 34 32 31 32 32 36 35 32 31 35 32 31 31 31 31 30 31 30 30 30 29 29 28 27 27 26 25 24
21 24 26 25 27 26 26 23 23 23 24 24 25 28 29 28 25 25 29 29 29 31 30 32 32 32 31 33 31 30 29 33 34 32 28 30 30 31 30 29 29 28 30 30 29 28 28 28 27 25 25 23 21 21
22 23 28 33 30 30 27 27 28 26 23 22 26 25 26 23 25 26 28 30 30 31 32 32 33 34 32 30 28 28 28 28 28 28 26 26 25 26 28 28 27 26 27 28 28 29 27 26 25 24 22 21 20 20
26 27 22 24 25 26 22 22 22 22 25 28 26 22 22 24 25 27 28 29 30 31 30 29 30 31 30 29 28 26 24 24 23 24 24 24 23 23 23 24 22 20 22 23 26 27 27 25 23 22 20 18 17 18
26 27 26 17 20 22 22 24 25 28 30 29 25 25 25 27 26 27 27 27 28 30 28 27 25 27 26 26 26 27 26 27 26 22 23 24 24 22 22 23 23 23 23 21 18 21 22 22 20 19 17 16 15 15
25 27 24 18 18 22 26 29 28 30 31 30 29 26 26 25 24 24 24 26 26 27 28 28 26 27 25 25 22 22 24 25 25 26 25 24 25 21 21 21 21 21 22 20 17 15 15 14 13 12 11 10 10 8
26 26 24 23 23 27 28 28 30 30 29 28 28 27 26 23 24 22 22 22 23 23 25 24 24 25 24 24 25 24 23 23 19 19 22 22 21 21 19 19 19 20 19 18 17 16 14 14 13 11 9 7 5 5
26 25 24 22 25 26 26 27 27 26 25 25 25 23 20 22 22 21 19 19 19 21 22 24 25 24 24 24 23 23 20 21 20 19 19 20 19 18 18 18 17 18 16 15 14 13 13 12 10 8 6 4 3 2
23 23 23 23 23 22 24 23 23 21 21 21 22 21 22 22 21 19 17 17 19 23 23 22 20 20 20 20 21 20 20 20 19 18 17 17 16 17 17 16 16 15 14 13 12 11 9 8 6 5 3 1 0 -1
MSLP
1002.71 1002.51 1002.66 1002.53 1003.33 1004.64 1005.85 1007.03 1008.04 1009.11 1010.26 1011.31 1012.23 1013.19 1014.14 1015.01 1015.85 1016.68 1017.24 1017.73 1018.28 1018.43 1017.93 1017.81 1017.49 1017.38 1017.08 1016.98 1017.00 1017.05 1017.84 1017.25 1017.26 1016.99 1015.91 1014.32 1013.20 1012.34 1011.79 1011.11 1011.52 1011.94 1012.39 1012.33 1012.32 1011.67 1010.73 1010.45 1011.27 1011.27 1010.99 1011.41 1011.71 1012.18
1001.80 1001.76 1002.30 1002.30 1003.43 1004.62 1005.69 1006.92 1008.04 1009.19 1010.27 1011.21 1012.13 1013.03 1013.92 1014.71 1015.46 1016.41 1017.15 1017.48 1018.05 1018.70 1018.31 1017.51 1017.28 1016.83 1016.60 1016.61 1016.97 1017.51 1017.28 1017.17 1017.10 1016.41 1015.21 1013.53 1012.62 1011.66 1011.01 1010.32 1010.44 1010.68 1010.47 1010.59 1010.83 1010.17 1010.61 1010.76 1011.18 1011.39 1011.50 1011.59 1012.27 1012.72
1000.28 1001.05 1001.83 1002.66 1003.70 1004.76 1005.91 1007.05 1008.20 1009.29 1010.26 1011.13 1012.02 1012.86 1013.56 1014.27 1015.09 1015.96 1016.88 1017.38 1018.24 1018.60 1018.32 1017.59 1016.22 1015.92 1016.12 1016.14 1016.36 1016.89 1017.13 1016.81 1016.52 1015.92 1014.75 1013.42 1012.16 1011.09 1010.47 1009.93 1009.70 1009.95 1010.20 1010.49 1010.80 1010.17 1010.67 1011.12 1011.64 1011.83 1012.13 1012.28 1012.71 1013.13
999.06 1000.42 1001.50 1002.66 1003.99 1005.18 1006.35 1007.47 1008.55 1009.46 1010.28 1011.16 1011.90 1012.58 1013.23 1013.97 1014.80 1015.73 1016.33 1016.92 1017.56 1018.13 1017.51 1015.51 1014.81 1014.94 1014.71 1014.88 1015.23 1015.70 1015.85 1016.02 1016.20 1015.77 1014.73 1013.19 1012.20 1011.63 1010.55 1010.21 1009.97 1009.72 1010.33 1010.11 1010.31 1010.38 1011.14 1011.30 1011.51 1011.95 1012.56 1012.89 1013.28 1013.76
999.04 1000.15 1001.97 1003.31 1004.62 1005.85 1006.93 1007.94 1008.82 1009.58 1010.32 1010.93 1011.58 1012.30 1013.13 1013.99 1014.78 1015.50 1016.21 1016.65 1016.89 1017.40 1016.65 1015.67 1015.13 1013.92 1013.59 1013.92 1014.15 1014.61 1015.21 1015.62 1015.73 1015.16 1014.81 1013.80 1012.39 1012.18 1011.44 1011.17 1009.94 1009.88 1009.50 1009.88 1009.91 1010.26 1010.65 1011.06 1011.46 1012.30 1012.80 1013.23 1013.71 1014.19
1000.43 1001.63 1002.98 1004.27 1005.47 1006.56 1007.46 1008.23 1009.07 1009.70 1010.19 1010.68 1011.37 1012.14 1012.95 1013.79 1014.59 1015.46 1016.09 1016.50 1016.54 1017.07 1017.22 1015.77 1014.02 1013.61 1013.43 1013.53 1013.76 1014.14 1014.39 1014.80 1015.10 1014.85 1014.58 1013.91 1013.15 1012.81 1011.75 1010.17 1009.22 1009.30 1009.91 1010.18 1010.40 1011.19 1011.66 1011.99 1012.35 1012.77 1013.12 1013.59 1014.14 1014.60
1002.21 1003.29 1004.32 1005.32 1006.34 1007.28 1008.09 1008.82 1009.42 1009.89 1010.42 1011.05 1011.72 1012.38 1012.97 1013.74 1014.45 1015.17 1015.53 1015.17 1015.62 1016.89 1017.06 1015.82 1013.63 1013.28 1013.35 1013.26 1013.65 1013.84 1013.87 1014.33 1014.71 1014.69 1014.38 1013.76 1013.11 1012.81 1011.74 1010.08 1009.57 1009.88 1010.33 1010.93 1011.38 1011.73 1012.28 1012.52 1012.69 1013.24 1013.50 1014.10 1014.87 1015.23
1004.07 1004.82 1005.46 1006.34 1007.19 1008.01 1008.71 1009.26 1009.76 1010.15 1010.63 1011.28 1011.88 1012.41 1013.03 1013.79 1014.56 1015.16 1015.07 1015.31 1015.71 1016.34 1016.63 1015.50 1013.48 1013.38 1013.58 1013.50 1013.72 1013.99 1014.02 1014.31 1014.57 1014.21 1014.00 1013.43 1013.02 1012.49 1010.99 1009.70 1009.90 1010.40 1010.85 1011.39 1011.78 1012.05 1012.02 1012.55 1013.22 1013.59 1014.10 1014.68 1015.23 1015.88
1005.69 1006.11 1006.70 1007.38 1007.99 1008.69 1009.26 1009.65 1010.00 1010.48 1011.07 1011.83 1012.48 1013.13 1013.83 1014.43 1014.60 1014.52 1014.90 1015.43 1015.87 1016.22 1015.37 1014.46 1012.93 1012.64 1013.40 1013.39 1013.40 1013.71 1013.62 1013.59 1013.84 1013.49 1013.27 1013.26 1012.20 1011.00 1009.67 1009.28 1009.79 1010.39 1010.67 1011.32 1012.14 1012.38 1012.69 1012.97 1013.47 1014.01 1014.44 1015.03 1015.49 1016.18
1006.86 1007.20 1007.70 1008.26 1008.83 1009.23 1009.55 1009.86 1010.30 1010.79 1011.56 1012.37 1012.92 1013.49 1013.93 1014.18 1014.27 1014.49 1015.22 1015.26 1015.27 1014.96 1014.86 1013.35 1012.26 1012.51 1012.97 1012.94 1012.73 1012.77 1012.67 1012.49 1012.47 1012.34 1012.69 1012.36 1010.69 1009.75 1009.49 1009.38 1009.65 1010.49 1011.04 1011.70 1011.99 1012.44 1012.78 1013.21 1013.76 1014.26 1014.68 1015.29 1015.86 1016.57
1007.61 1007.96 1008.45 1008.84 1009.14 1009.52 1009.94 1010.07 1010.56 1011.37 1012.07 1012.67 1013.14 1013.38 1013.40 1013.64 1014.02 1014.26 1013.98 1013.96 1013.70 1013.35 1012.68 1011.73 1011.75 1012.06 1012.85 1012.55 1011.91 1011.90 1011.64 1011.78 1011.63 1011.92 1011.88 1010.93 1010.03 1009.61 1009.75 1009.84 1010.32 1011.01 1011.58 1011.95 1012.16 1012.30 1012.77 1013.28 1013.90 1014.61 1015.32 1016.01 1016.60 1017.23
1008.05 1008.40 1008.83 1009.17 1009.60 1009.99 1010.24 1010.52 1011.12 1011.68 1012.15 1012.71 1013.03 1013.45 1013.58 1013.59 1013.43 1013.27 1012.68 1012.35 1011.87 1010.64 1010.94 1010.99 1011.25 1011.78 1012.54 1012.46 1011.41 1011.75 1011.39 1011.74 1011.48 1011.93 1011.63 1010.56 1010.35 1010.39 1010.29 1010.60 1011.18 1011.62 1012.11 1012.47 1012.66 1012.96 1013.45 1013.92 1014.51 1015.10 1015.79 1016.49 1017.15 1017.79
1008.82 1009.10 1009.27 1009.64 1009.89 1010.14 1010.42 1010.89 1011.27 1011.82 1012.43 1013.01 1013.14 1013.27 1013.16 1013.25 1012.78 1011.90 1011.17 1010.74 1010.39 1010.41 1010.67 1010.81 1011.47 1011.90 1012.30 1012.23 1011.85 1011.64 1011.74 1011.95 1012.08 1011.86 1011.15 1010.90 1011.22 1011.17 1011.13 1011.46 1011.91 1012.33 1012.79 1013.09 1013.39 1013.75 1014.18 1014.72 1015.25 1015.72 1016.35 1017.02 1017.75 1018.45
1009.26 1009.48 1009.75 1009.88 1009.84 1009.94 1010.63 1011.14 1011.62 1012.17 1012.59 1012.75 1012.83 1012.83 1012.66 1012.15 1011.46 1010.76 1010.33 1010.15 1010.56 1010.39 1010.31 1010.40 1011.08 1011.35 1011.68 1011.75 1011.91 1011.78 1012.34 1012.25 1012.03 1011.71 1011.16 1011.73 1012.22 1012.26 1012.16 1012.44 1012.71 1013.16 1013.61 1013.92 1014.23 1014.60 1015.09 1015.60 1016.27 1016.73 1017.18 1017.69 1018.12 1018.84
1009.29 1009.35 1009.43 1009.79 1009.95 1010.41 1010.94 1011.39 1011.82 1012.02 1012.43 1012.47 1012.42 1012.23 1011.98 1011.76 1011.46 1011.16 1011.01 1010.77 1010.90 1010.63 1010.31 1010.54 1010.82 1010.96 1011.41 1011.73 1011.93 1012.24 1012.49 1012.12 1011.79 1011.71 1012.33 1013.09 1013.33 1013.17 1013.17 1013.49 1013.76 1014.13 1014.48 1014.87 1015.33 1015.82 1016.30 1016.75 1017.16 1017.66 1018.10 1018.47 1018.86 1019.42
1009.39 1009.43 1009.75 1010.11 1010.42 1010.80 1011.28 1011.66 1011.95 1012.39 1012.51 1012.43 1012.45 1012.27 1011.99 1011.73 1011.52 1011.38 1011.15 1010.97 1010.97 1010.55 1010.52 1010.27 1010.45 1010.79 1011.12 1011.33 1011.75 1011.76 1012.03 1011.99 1012.49 1013.27 1013.67 1013.88 1014.20 1014.31 1014.37 1014.55 1014.76 1015.07 1015.34 1015.79 1016.22 1016.64 1017.06 1017.46 1017.79 1018.22 1018.78 1019.11 1019.47 1019.85
1009.62 1010.01 1010.20 1010.56 1010.89 1011.18 1011.45 1011.77 1011.80 1012.15 1012.35 1012.44 1012.50 1012.43 1012.25 1011.81 1011.64 1011.50 1011.24 1011.12 1011.08 1010.63 1010.24 1010.17 1010.42 1010.88 1011.39 1011.44 1011.79 1012.10 1012.55 1013.25 1013.76 1014.31 1014.52 1014.80 1015.14 1015.40 1015.48 1015.59 1015.79 1015.98 1016.20 1016.50 1016.86 1017.27 1017.73 1018.18 1018.51 1018.79 1019.12 1019.75 1019.98 1020.40
1009.99 1010.36 1010.63 1010.82 1011.02 1011.28 1011.46 1011.45 1011.46 1011.78 1012.34 1012.52 1012.37 1012.45 1012.29 1012.15 1011.92 1011.75 1011.63 1011.35 1011.01 1010.54 1010.39 1010.63 1010.93 1011.23 1011.60 1011.87 1012.19 1013.03 1013.63 1014.30 1014.82 1015.13 1015.33 1015.64 1015.95 1016.22 1016.29 1016.44 1016.64 1016.78 1017.03 1017.32 1017.57 1017.87 1018.19 1018.46 1018.60 1018.91 1019.45 1020.03 1020.40 1020.85
1010.26 1010.35 1010.27 1010.15 1010.58 1010.70 1010.92 1011.47 1011.53 1011.81 1012.37 1012.51 1012.60 1012.53 1012.45 1012.42 1012.41 1012.27 1011.93 1011.64 1011.26 1011.03 1011.01 1011.24 1011.64 1012.09 1012.60 1013.00 1013.14 1013.54 1014.12 1014.63 1015.14 1015.65 1016.02 1016.30 1016.55 1016.78 1016.98 1017.19 1017.37 1017.56 1017.73 1017.86 1017.91 1018.00 1018.33 1018.68 1018.78 1019.05 1019.60 1019.97 1020.18 1020.73
1010.08 1009.95 1010.19 1010.20 1010.39 1010.19 1010.86 1011.49 1011.66 1011.79 1012.35 1012.81 1012.76 1012.60 1012.66 1012.67 1012.73 1012.68 1012.42 1012.12 1011.80 1011.72 1011.86 1012.25 1012.89 1013.51 1013.79 1014.02 1014.09 1014.14 1014.58 1015.01 1015.28 1015.78 1016.27 1016.65 1016.93 1017.15 1017.34 1017.37 1017.54 1017.89 1018.03 1018.27 1018.40 1018.50 1018.72 1019.02 1019.36 1019.67 1019.96 1020.15 1020.44 1020.99
1010.15 1010.40 1010.37 1009.95 1010.47 1010.86 1011.63 1011.88 1011.92 1012.26 1012.41 1012.47 1012.75 1012.68 1012.76 1012.79 1012.85 1012.88 1012.84 1012.70 1012.48 1012.81 1013.07 1013.50 1013.89 1014.43 1014.78 1014.83 1014.70 1014.73 1015.04 1015.17 1015.31 1015.57 1016.10 1016.76 1017.24 1017.42 1017.72 1017.92 1018.00 1018.10 1018.24 1018.47 1018.60 1018.85 1018.96 1019.20 1019.72 1020.18 1020.49 1020.76 1021.10 1021.57
1010.88 1010.74 1010.63 1010.74 1011.11 1011.61 1012.20 1012.68 1012.56 1012.57 1012.54 1012.65 1012.66 1012.77 1012.82 1012.94 1013.17 1013.39 1013.56 1013.33 1013.70 1014.08 1014.25 1014.25 1014.57 1014.87 1015.18 1015.39 1015.46 1015.53 1015.75 1015.83 1016.05 1016.34 1016.72 1017.17 1017.45 1017.73 1018.03 1018.18 1018.16 1018.24 1018.37 1018.50 1018.58 1018.91 1019.18 1019.61 1020.10 1020.55 1020.97 1021.46 1021.78 1022.22
1011.00 1010.98 1011.43 1011.73 1012.02 1012.35 1013.40 1013.15 1012.76 1012.74 1012.72 1012.86 1012.98 1012.90 1013.05 1013.13 1013.39 1013.70 1013.76 1014.15 1014.53 1014.96 1014.98 1015.05 1015.30 1015.56 1015.81 1015.98 1016.05 1016.18 1016.24 1016.30 1016.58 1016.92 1017.25 1017.52 1017.89 1018.21 1018.41 1018.55 1018.50 1018.61 1018.72 1018.90 1018.99 1019.12 1019.49 1020.10 1020.64 1021.02 1021.50 1021.83 1022.27 1022.86
1011.79 1012.48 1012.88 1013.09 1013.14 1013.61 1013.85 1013.50 1013.31 1013.19 1013.14 1013.09 1013.04 1013.12 1013.32 1013.41 1013.68 1013.72 1014.00 1014.50 1015.05 1015.33 1015.36 1015.53 1015.65 1015.99 1016.26 1016.47 1016.67 1016.88 1016.99 1016.79 1017.18 1017.59 1017.75 1017.95 1018.31 1018.76 1018.92 1019.16 1019.34 1019.51 1019.60 1019.50 1019.39 1019.47 1019.91 1020.32 1020.95 1021.35 1021.76 1022.11 1022.58 1022.99
1012.66 1014.71 1014.41 1014.26 1014.19 1014.10 1014.06 1014.00 1013.90 1013.65 1013.65 1013.73 1013.65 1013.67 1013.79 1013.93 1013.76 1013.99 1014.25 1014.97 1015.37 1015.61 1015.76 1015.87 1015.96 1016.02 1016.19 1016.72 1017.24 1017.53 1017.82 1017.54 1017.56 1018.02 1018.67 1018.56 1018.87 1019.27 1019.51 1019.70 1019.91 1020.08 1020.02 1019.70 1019.69 1019.84 1020.22 1020.68 1021.07 1021.49 1021.92 1022.32 1022.80 1023.40
1013.87 1015.11 1015.04 1014.84 1014.66 1014.45 1014.46 1014.29 1014.25 1014.20 1014.21 1014.10 1014.18 1014.39 1014.35 1014.21 1014.26 1014.27 1014.67 1015.32 1015.75 1016.05 1016.22 1016.16 1016.20 1016.42 1016.76 1017.11 1017.53 1017.99 1018.38 1018.48 1018.47 1018.76 1019.50 1019.65 1019.65 1019.47 1019.55 1019.79 1019.99 1020.35 1020.52 1020.39 1020.26 1020.31 1020.63 1021.01 1021.44 1021.91 1022.37 1023.02 1023.63 1024.13
1014.79 1015.33 1015.37 1015.38 1015.16 1014.97 1014.98 1015.07 1014.99 1014.73 1014.56 1014.44 1014.49 1014.57 1014.60 1014.54 1014.42 1015.27 1016.05 1016.46 1016.48 1016.84 1017.00 1017.03 1016.95 1016.91 1017.14 1017.80 1018.43 1018.87 1019.17 1019.32 1019.41 1019.77 1020.25 1020.50 1020.67 1020.68 1020.47 1020.39 1020.59 1021.08 1021.16 1021.01 1020.90 1020.80 1021.03 1021.49 1022.01 1022.57 1023.21 1023.87 1024.41 1024.89
1015.57 1015.72 1015.75 1015.93 1015.70 1015.74 1015.41 1015.36 1015.20 1015.03 1015.00 1015.16 1015.29 1015.12 1015.11 1015.28 1015.62 1016.44 1016.89 1017.40 1017.39 1017.53 1017.66 1017.82 1017.85 1017.87 1018.11 1018.59 1019.05 1019.51 1019.97 1020.33 1020.56 1020.67 1020.89 1021.15 1021.39 1021.48 1021.54 1021.59 1021.84 1021.95 1021.92 1021.86 1021.63 1021.55 1021.70 1022.15 1022.74 1023.34 1024.01 1024.66 1025.33 1025.93
1015.96 1016.17 1016.25 1016.36 1016.23 1016.11 1015.94 1015.60 1015.35 1015.32 1015.52 1015.43 1015.46 1015.67 1015.90 1016.58 1017.24 1017.48 1017.92 1018.08 1018.14 1017.89 1017.93 1018.15 1018.61 1018.83 1019.15 1019.52 1019.77 1019.92 1020.21 1020.37 1020.41 1020.52 1020.56 1020.81 1021.26 1021.87 1022.19 1022.21 1022.34 1022.43 1022.54 1022.71 1022.88 1022.85 1022.98 1023.25 1023.76 1024.37 1025.09 1025.78 1026.50 1027.09
1016.40 1016.57 1016.30 1016.48 1016.31 1015.88 1015.89 1015.91 1015.65 1015.79 1015.90 1016.01 1016.23 1016.64 1017.01 1017.42 1018.15 1018.85 1018.71 1018.54 1018.35 1018.20 1018.23 1018.44 1018.81 1018.95 1019.23 1019.55 1019.99 1020.46 1020.77 1020.83 1020.82 1020.62 1020.53 1020.82 1021.24 1022.09 1022.45 1022.66 1022.89 1023.12 1023.28 1023.58 1023.93 1024.38 1024.69 1024.96 1025.49 1025.99 1026.52 1027.16 1027.77 1028.43
1016.89 1016.72 1016.47 1016.35 1016.05 1016.01 1016.06 1016.15 1016.02 1015.98 1016.01 1016.07 1016.39 1016.67 1017.16 1017.81 1018.31 1018.88 1019.10 1019.21 1019.13 1019.07 1018.88 1018.91 1019.15 1019.37 1019.50 1019.69 1019.86 1020.23 1020.59 1021.02 1021.32 1021.37 1021.40 1021.64 1022.07 1022.48 1022.91 1023.27 1023.52 1023.76 1024.06 1024.33 1024.62 1024.92 1025.26 1025.63 1026.19 1026.78 1027.41 1028.06 1028.78 1029.29
1016.93 1016.64 1016.54 1016.29 1016.12 1016.42 1016.53 1016.27 1015.98 1015.87 1016.07 1016.22 1016.33 1017.12 1017.75 1018.11 1018.09 1018.51 1019.45 1019.59 1019.38 1019.10 1019.01 1018.98 1019.09 1019.42 1019.89 1020.11 1020.40 1020.68 1020.99 1021.23 1021.55 1021.82 1022.03 1022.27 1022.69 1023.19 1023.61 1023.95 1024.22 1024.36 1024.68 1025.01 1025.39 1025.79 1026.11 1026.46 1027.04 1027.72 1028.44 1029.11 1029.75 1030.38
1017.12 1017.05 1016.90 1016.65 1016.49 1016.45 1016.67 1016.63 1016.27 1016.17 1016.36 1016.36 1016.62 1017.25 1017.53 1017.86 1018.04 1018.90 1019.87 1020.04 1019.78 1019.27 1019.29 1019.60 1019.94 1020.22 1020.55 1020.73 1020.96 1021.34 1021.56 1021.90 1022.19 1022.52 1022.87 1023.17 1023.44 1023.74 1024.04 1024.38 1024.69 1025.00 1025.33 1025.70 1026.16 1026.61 1026.98 1027.48 1028.09 1028.75 1029.42 1030.09 1030.75 1031.39
Wind_Speed
19 22 18 19 28 27 27 26 22 23 24 23 22 20 19 19 22 13 5 8 8 3 7 6 9 15 11 9 8 2 5 3 2 6 6 4 7 8 6 6 10 11 8 9 11 10 10 8 8 7 4 3 4 5
21 19 15 21 26 25 26 26 25 24 22 21 20 19 19 19 21 19 3 7 5 3 3 4 11 17 18 15 10 6 5 3 3 5 5 4 4 4 10 8 11 8 10 4 7 3 4 9 2 2 2 5 3 5
20 25 19 27 27 25 26 25 24 21 18 18 18 18 19 20 21 17 4 5 3 2 4 7 14 18 18 19 15 6 4 5 5 6 3 5 7 6 7 10 7 6 6 6 3 7 6 6 5 4 3 2 4 5
19 27 26 27 27 26 24 20 19 17 15 17 17 16 18 20 21 17 4 5 4 2 3 5 5 10 8 13 21 19 18 5 9 4 4 5 5 2 4 4 8 4 7 10 9 7 3 8 9 7 5 5 6 7
28 32 30 28 25 23 20 18 16 15 17 18 17 18 17 15 16 9 6 5 6 4 2 3 11 18 11 14 15 17 14 10 7 3 3 3 3 3 2 3 9 7 8 6 5 1 3 3 9 8 8 7 8 10
29 29 28 26 25 22 20 17 15 13 11 17 19 17 18 16 14 4 2 5 8 3 0 4 2 4 5 7 12 14 10 7 4 3 2 3 4 3 4 6 7 8 6 2 1 6 6 6 7 7 7 8 8 8
26 26 26 24 22 19 17 15 12 10 12 14 17 16 16 13 7 3 2 2 16 6 3 4 5 3 2 5 2 2 4 2 2 2 4 3 4 6 3 7 3 6 6 5 8 10 6 8 5 8 9 9 8 7
22 21 21 21 19 17 14 13 9 10 15 14 12 13 15 16 9 2 3 6 9 3 3 4 4 2 2 1 2 1 2 2 3 2 2 2 3 2 5 13 4 6 7 7 6 1 1 8 10 10 10 9 10 9
18 18 19 18 17 14 12 10 8 17 20 20 20 16 5 2 2 3 9 14 4 3 3 4 4 2 3 2 2 2 2 3 3 2 2 3 2 5 8 7 10 10 9 9 6 6 8 10 11 10 10 9 9 9
14 15 15 14 14 12 10 5 12 23 23 18 4 3 3 4 8 12 5 5 5 4 5 4 2 3 3 2 3 4 3 3 3 3 5 4 5 5 3 3 8 11 7 11 10 8 9 10 11 11 9 7 7 9
13 12 13 13 12 10 5 10 24 22 10 2 3 3 1 6 3 3 4 5 6 5 6 4 7 4 2 3 3 2 3 3 3 4 4 3 3 1 2 6 9 8 9 5 2 3 7 10 11 10 8 8 8 9
12 12 11 9 11 5 1 22 22 5 3 4 4 3 2 2 3 4 5 4 6 4 5 5 5 4 3 4 3 2 1 1 2 2 2 3 2 3 6 10 10 11 7 6 6 9 8 10 9 9 9 8 7 8
8 9 8 7 1 5 17 16 15 17 8 2 2 2 2 2 4 6 8 4 4 5 5 6 4 2 3 3 1 2 4 2 1 3 3 1 2 3 7 9 11 9 8 9 9 8 10 10 9 8 7 7 8 8
9 9 9 4 6 18 20 17 17 8 3 1 3 4 3 5 4 1 1 3 3 2 7 8 4 3 2 3 1 3 2 2 3 4 2 3 3 2 5 6 10 10 7 8 9 8 7 7 5 4 4 6 6 7
3 2 5 10 12 16 15 15 10 1 2 1 1 2 3 1 1 1 1 2 2 4 6 5 3 2 2 3 1 3 3 4 4 1 2 1 2 1 6 5 7 6 4 5 5 5 5 6 6 6 4 4 5 7
9 10 6 12 13 14 12 7 2 2 1 2 1 3 1 3 2 2 1 3 2 3 2 1 3 3 2 2 4 4 3 3 2 1 1 1 2 3 4 4 4 4 5 5 5 5 6 5 5 7 6 5 5 6
8 2 9 10 8 5 6 2 4 3 2 1 1 0 2 1 2 1 1 2 1 3 2 1 1 1 3 2 3 1 0 2 2 1 2 4 3 3 3 5 4 4 6 6 6 5 5 5 7 7 7 4 5 5
4 6 7 9 7 4 2 1 2 2 3 2 1 1 1 1 1 2 2 2 2 1 1 2 2 2 1 2 3 3 3 3 4 3 4 5 5 5 4 5 5 6 6 6 6 6 6 6 6 4 6 6 7 6
5 2 2 9 8 3 2 2 1 3 3 2 1 1 1 1 2 1 3 3 3 3 3 2 3 1 1 1 2 2 5 3 4 4 5 6 6 6 6 6 6 6 6 6 5 5 5 4 4 4 5 4 4 5
7 14 11 4 5 1 4 3 1 3 2 2 0 1 1 2 1 2 4 4 2 1 3 3 2 2 1 1 2 3 4 5 6 6 5 4 4 5 5 4 5 6 6 6 6 5 5 5 4 4 3 4 4 5
4 5 7 1 3 4 3 2 3 2 2 1 1 1 2 1 2 3 3 4 3 3 2 2 3 3 3 3 3 4 5 5 4 3 5 5 4 4 4 4 4 3 3 3 3 4 3 3 4 4 4 4 4 5
2 5 2 4 3 3 3 3 2 1 1 2 1 1 2 2 2 2 1 3 2 2 1 2 3 4 4 4 3 4 4 5 6 6 7 7 5 5 4 3 3 4 3 3 3 3 3 4 4 4 5 6 6 6
2 3 3 5 3 4 3 3 1 2 2 2 1 2 2 1 2 1 2 2 2 1 1 3 5 6 6 6 8 8 7 8 7 6 5 5 5 4 4 3 2 2 3 2 1 3 4 6 6 6 6 6 7 7
4 5 5 4 4 3 1 3 2 1 1 1 1 3 2 2 1 0 2 2 2 1 3 7 6 6 6 6 4 4 4 4 6 5 4 5 5 4 3 3 3 3 2 2 0 2 5 5 7 6 6 7 7 7
4 5 3 4 2 2 3 2 2 1 2 1 1 1 2 1 2 2 2 3 3 3 3 4 3 2 4 4 4 3 3 1 4 5 3 2 4 4 3 3 3 3 3 1 2 4 5 5 5 7 7 7 8 9
6 4 3 2 1 1 1 1 1 1 1 2 2 1 1 2 3 3 2 4 3 2 2 3 3 4 4 2 4 3 2 2 2 3 3 2 1 1 2 3 2 3 4 3 2 4 5 5 6 8 7 8 9 10
4 4 2 2 2 1 2 2 1 1 1 1 0 1 2 4 4 3 3 2 2 2 2 2 0 2 4 4 4 4 3 3 4 4 4 4 4 3 3 1 2 3 3 3 1 3 5 7 7 7 8 7 7 7
3 3 1 2 2 2 2 1 1 2 1 1 2 4 3 2 1 3 2 2 2 3 3 4 4 4 4 4 4 5 5 5 7 7 6 6 5 4 4 4 5 6 5 5 4 4 5 6 7 8 9 9 8 7
2 2 1 2 0 1 1 1 1 1 1 1 2 1 1 1 1 1 2 1 1 2 3 4 4 4 5 5 4 4 5 4 4 4 4 4 3 3 2 3 4 4 5 7 11 9 9 8 9 10 11 9 9 9
2 2 0 1 1 2 2 1 1 1 1 1 1 1 2 2 1 0 2 2 4 4 3 3 4 4 4 4 5 4 2 1 2 1 2 3 3 5 4 4 4 4 5 7 8 11 14 12 12 10 10 9 8 9
2 2 1 2 2 1 0 2 1 2 2 2 2 3 1 2 2 3 2 1 1 2 3 5 4 3 4 4 5 5 4 3 0 0 2 4 6 5 5 5 4 4 5 6 7 7 8 9 9 10 11 11 11 9
2 2 2 3 1 1 1 2 2 2 1 3 3 1 2 2 4 4 2 2 3 4 4 4 5 5 3 2 3 3 5 4 4 4 7 6 6 7 6 5 5 6 7 8 8 8 10 10 9 10 11 12 11 11
3 2 2 2 2 2 1 3 2 2 3 2 2 1 1 2 4 2 2 1 3 2 2 3 4 5 6 5 5 6 6 6 9 9 10 10 9 8 6 5 6 7 9 8 8 9 10 13 11 12 12 11 11 10
Wind_Direction
257 260 231 223 179 175 175 171 174 168 172 174 172 176 179 181 180 179 193 193 206 219 248 231 241 237 241 237 252 235 281 179 174 202 222 201 229 205 236 219 179 186 194 208 229 248 260 136 134 223 63 102 124 139
254 225 200 172 164 163 161 168 166 163 167 171 173 177 182 187 184 178 183 191 180 191 299 242 262 253 250 253 260 201 264 246 221 243 232 220 217 203 226 225 211 229 221 246 232 240 88 188 350 138 179 150 161 150
225 186 185 173 152 160 160 158 159 159 159 167 175 179 186 189 187 174 147 133 129 119 271 240 241 243 237 237 243 228 223 217 215 249 266 245 240 217 221 238 242 235 231 232 263 220 236 204 201 190 196 146 136 137
179 172 157 142 148 149 150 152 154 158 162 171 178 180 184 187 182 170 151 154 172 133 261 267 221 243 241 237 219 212 236 237 272 185 265 246 246 239 258 293 269 286 172 228 241 245 209 218 214 193 164 137 133 139
132 133 138 139 135 137 139 148 158 163 176 182 177 165 158 171 183 168 172 177 174 211 299 284 295 261 264 229 229 223 221 212 240 203 206 248 281 213 208 284 244 199 212 208 243 214 264 87 181 173 168 167 155 151
120 123 122 122 125 126 124 123 130 134 140 151 150 154 158 176 162 135 165 190 195 129 319 268 330 246 233 228 223 222 217 200 219 193 205 226 212 239 251 240 237 203 206 279 148 113 76 103 132 163 162 152 153 162
94 106 110 112 112 114 117 118 116 138 151 156 157 157 159 180 166 148 170 53 169 138 219 264 242 152 272 244 209 196 149 131 156 164 215 232 187 199 231 239 146 185 161 132 128 128 116 176 170 155 144 134 140 134
86 98 107 112 114 114 114 119 113 144 133 129 136 139 147 137 99 177 178 86 139 119 194 249 250 237 178 157 140 46 119 137 191 197 206 228 155 208 243 233 170 154 135 138 155 246 354 135 141 135 128 134 137 145
85 97 107 112 114 116 112 115 117 132 121 112 105 100 83 82 173 162 149 143 168 219 226 214 243 210 141 178 113 147 188 169 138 211 211 200 173 221 233 200 184 175 173 159 143 135 143 152 147 141 139 149 152 148
94 98 111 115 119 115 97 90 148 129 121 118 87 122 178 194 174 131 137 186 191 198 210 254 231 206 178 175 170 156 199 167 201 168 139 224 239 248 219 201 173 166 155 153 142 154 159 159 161 157 157 153 153 155
107 109 122 121 120 109 99 132 128 123 114 116 146 180 66 155 106 166 185 190 175 208 197 212 202 158 151 191 153 242 169 169 226 136 235 215 236 179 176 151 141 136 147 161 270 153 173 166 158 151 145 144 145 155
112 116 118 122 130 87 276 146 135 138 124 127 103 87 62 165 175 207 193 181 207 202 158 176 151 116 152 255 231 176 165 195 228 132 233 249 66 24 143 135 129 133 128 116 124 130 136 147 155 153 151 151 150 140
127 142 136 147 151 284 152 139 107 109 96 72 121 127 198 128 197 215 185 182 175 159 163 156 122 119 156 227 92 184 172 200 163 197 233 32 58 126 138 134 136 134 126 121 114 119 133 138 142 154 150 150 144 141
162 144 153 226 251 155 144 129 122 131 110 127 175 152 241 182 232 239 55 92 84 123 147 150 131 154 160 156 164 171 86 213 204 229 208 102 50 62 144 139 145 146 134 134 128 129 123 127 116 83 113 140 139 149
24 275 171 143 128 139 141 131 155 183 113 105 189 188 215 322 295 355 350 158 111 173 141 136 105 156 133 123 142 124 173 222 233 237 77 58 2 125 141 145 146 135 116 106 125 119 127 133 139 124 114 122 124 129
159 125 121 139 137 129 132 163 91 69 112 150 107 218 185 225 149 195 158 120 151 139 156 202 145 160 158 151 173 199 205 224 114 29 49 80 66 73 98 101 102 111 130 132 128 130 136 144 142 129 119 108 119 142
89 73 153 146 151 155 215 178 185 129 102 121 141 317 272 42 57 49 5 75 114 198 116 126 141 83 120 176 161 198 19 64 97 99 59 82 87 73 81 94 99 106 112 114 114 114 109 108 123 130 127 109 111 105
74 127 164 192 177 158 143 228 103 91 95 66 120 20 353 4 343 41 12 20 224 113 94 81 139 137 119 177 157 127 121 99 85 85 77 85 82 70 75 93 86 96 100 95 103 109 118 131 133 111 116 120 113 112
135 130 314 204 177 183 158 109 345 98 67 45 22 349 2 31 46 18 12 25 55 64 113 92 75 95 126 43 31 116 144 149 146 110 80 74 84 88 91 91 96 100 103 112 123 108 100 68 95 117 123 150 127 134
51 37 25 67 218 144 91 63 336 91 110 102 25 43 22 35 24 20 35 20 36 44 66 61 82 94 13 48 6 119 131 138 142 129 111 98 102 111 99 107 104 115 111 110 100 113 117 106 96 107 117 124 139 139
29 6 346 43 61 55 70 16 76 51 116 89 91 14 64 60 52 35 31 347 52 33 92 80 99 89 75 81 93 118 128 155 154 158 145 134 116 113 109 105 107 106 112 112 118 114 111 108 120 124 127 103 98 105
358 338 48 18 67 69 77 23 31 70 65 75 90 23 71 86 68 52 7 46 63 70 56 127 120 135 114 69 72 75 98 108 108 103 102 122 129 126 123 121 142 124 129 133 135 134 118 119 124 125 117 114 114 117
335 36 51 23 75 39 62 323 65 31 130 115 180 144 113 116 85 182 86 62 87 52 74 101 98 95 107 109 97 91 105 116 118 115 120 110 101 107 111 88 67 117 138 117 164 159 141 130 132 124 122 125 122 122
29 48 34 43 22 78 328 37 11 57 52 105 132 120 111 84 125 83 123 132 106 121 150 137 138 125 118 111 108 104 92 115 114 107 120 136 130 107 87 79 68 54 15 333 357 135 146 147 140 145 140 139 138 142
83 21 4 53 22 62 58 62 14 96 106 71 141 148 127 289 202 205 187 149 158 146 139 150 153 155 136 120 129 114 61 155 149 136 74 106 116 128 120 92 77 49 357 201 141 137 132 144 150 151 155 152 148 139
73 6 21 52 59 45 95 126 60 96 112 163 128 66 255 217 220 219 146 153 144 135 137 162 158 145 131 136 146 145 102 50 131 141 99 47 33 249 176 174 163 101 26 29 117 139 138 138 140 144 137 128 134 136
79 54 46 29 320 99 119 87 81 226 185 185 65 212 216 229 225 123 134 113 121 101 61 36 269 182 148 134 106 85 66 51 51 78 92 76 56 31 10 82 109 59 5 11 99 143 143 138 134 131 125 125 131 135
57 16 38 9 64 3 120 102 203 195 171 129 223 220 241 256 33 110 105 91 94 101 85 65 52 81 103 107 110 118 101 103 105 108 108 90 66 58 61 68 60 60 57 28 65 96 117 126 129 130 126 120 116 118
65 44 263 37 347 110 212 217 188 129 34 278 268 252 275 47 62 150 109 45 345 161 143 130 97 98 99 98 93 111 133 148 161 159 171 142 155 110 65 87 82 74 77 78 68 74 91 102 109 112 112 109 107 108
41 341 356 113 239 248 168 231 218 122 88 26 102 160 205 185 130 298 258 230 196 188 162 151 146 167 153 156 142 148 146 36 355 341 164 164 131 119 129 118 105 95 96 98 98 97 98 99 104 106 109 112 111 109
325 272 252 239 269 175 115 337 256 240 219 222 190 260 329 16 192 186 219 201 215 195 182 168 166 168 161 161 170 171 184 165 217 214 67 105 119 120 115 109 109 111 114 117 117 115 117 110 110 114 112 111 114 116
281 255 280 270 240 88 277 253 277 253 215 244 206 161 164 229 250 151 137 211 204 209 206 216 193 176 153 105 88 71 51 103 111 121 129 122 115 114 115 111 111 111 112 109 110 116 119 118 119 119 118 116 114 113
256 255 261 269 250 240 118 280 248 270 221 233 209 236 235 276 271 94 128 313 278 275 167 120 93 98 101 101 106 101 93 88 93 97 99 102 110 114 112 108 109 113 113 111 111 115 116 119 117 119 117 119 117 116